SLAYR40 KCHS-KNIP

Flight info

Callsign SLAYR40
Flight time 1h 28m
Altitude 4000
Route KCHS DCT RUBYS DCT BASLE DCT KNIP
Aircraft H60/L-VD/C

Departure

Time 2026-05-07 03:51
Airport Charleston International Airport (KCHS)

Arrival

Time 2026-05-07 05:20
Airport Jacksonville Naval Air Station (Towers Field) (KNIP)
Time Latitude Longitude Altitude Speed Heading
2026-05-07 03:41 32.89935 -80.03281 49 ft 0 kts 336°
2026-05-07 03:51 32.89954 -80.03295 70 ft 11 kts 328°
2026-05-07 03:51 32.90108 -80.03438 205 ft 47 kts 314°
2026-05-07 03:51 32.90187 -80.03968 571 ft 84 kts 245°
2026-05-07 03:51 32.89927 -80.04702 913 ft 105 kts 235°
2026-05-07 03:52 32.89447 -80.05389 1173 ft 111 kts 223°
2026-05-07 03:52 32.88875 -80.06032 1349 ft 115 kts 220°
2026-05-07 03:52 32.88274 -80.06654 1486 ft 116 kts 219°
2026-05-07 03:52 32.87641 -80.07230 1733 ft 112 kts 216°
2026-05-07 03:53 32.86991 -80.07750 1866 ft 114 kts 213°
2026-05-07 03:53 32.86290 -80.08242 1948 ft 119 kts 211°
2026-05-07 03:53 32.85559 -80.08684 2275 ft 115 kts 209°
2026-05-07 03:53 32.84826 -80.09072 2738 ft 116 kts 208°
2026-05-07 03:54 32.84064 -80.09445 3214 ft 121 kts 208°
2026-05-07 03:54 32.83276 -80.09801 3637 ft 123 kts 208°
2026-05-07 03:54 32.82480 -80.10164 4020 ft 122 kts 209°
2026-05-07 03:54 32.81694 -80.10529 3912 ft 121 kts 209°
2026-05-07 03:55 32.80908 -80.10898 3973 ft 124 kts 210°
2026-05-07 03:55 32.80124 -80.11279 3996 ft 123 kts 210°
2026-05-07 03:55 32.79345 -80.11691 4009 ft 122 kts 210°
2026-05-07 03:55 32.78569 -80.12104 4025 ft 122 kts 210°
2026-05-07 03:56 32.77793 -80.12509 4027 ft 122 kts 210°
2026-05-07 03:56 32.77013 -80.12915 4027 ft 122 kts 210°
2026-05-07 03:56 32.76239 -80.13334 4033 ft 123 kts 210°
2026-05-07 03:56 32.75465 -80.13757 4040 ft 121 kts 210°
2026-05-07 03:57 32.74697 -80.14174 4030 ft 121 kts 210°
2026-05-07 03:57 32.73927 -80.14588 4032 ft 122 kts 210°
2026-05-07 03:57 32.73145 -80.14999 4032 ft 124 kts 210°
2026-05-07 03:57 32.72382 -80.15462 4029 ft 122 kts 216°
2026-05-07 03:58 32.71645 -80.15971 4031 ft 124 kts 216°
2026-05-07 03:58 32.70905 -80.16491 4028 ft 123 kts 217°
2026-05-07 03:58 32.70189 -80.17004 4028 ft 120 kts 217°
2026-05-07 03:58 32.69471 -80.17525 4031 ft 122 kts 217°
2026-05-07 03:59 32.68751 -80.18052 4024 ft 121 kts 217°
2026-05-07 03:59 32.68042 -80.18580 4025 ft 120 kts 217°
2026-05-07 03:59 32.67337 -80.19108 4027 ft 119 kts 217°
2026-05-07 03:59 32.66631 -80.19641 4029 ft 121 kts 218°
2026-05-07 04:00 32.65921 -80.20178 4028 ft 121 kts 218°
2026-05-07 04:00 32.65211 -80.20720 4030 ft 121 kts 218°
2026-05-07 04:00 32.64510 -80.21255 4032 ft 120 kts 218°
2026-05-07 04:00 32.63815 -80.21797 4026 ft 119 kts 218°
2026-05-07 04:01 32.63124 -80.22336 4022 ft 120 kts 218°
2026-05-07 04:01 32.62423 -80.22883 4026 ft 121 kts 218°
2026-05-07 04:01 32.61706 -80.23410 4023 ft 122 kts 217°
2026-05-07 04:01 32.60990 -80.23918 4021 ft 120 kts 217°
2026-05-07 04:02 32.60275 -80.24428 4024 ft 121 kts 217°
2026-05-07 04:02 32.59571 -80.24969 4027 ft 121 kts 217°
2026-05-07 04:02 32.58878 -80.25525 4023 ft 120 kts 217°
2026-05-07 04:02 32.58191 -80.26082 4020 ft 120 kts 217°
2026-05-07 04:03 32.57496 -80.26646 4024 ft 122 kts 217°
2026-05-07 04:03 32.56807 -80.27201 4025 ft 121 kts 217°
2026-05-07 04:03 32.56110 -80.27742 4020 ft 120 kts 217°
2026-05-07 04:03 32.55410 -80.28293 4020 ft 120 kts 217°
2026-05-07 04:04 32.54709 -80.28843 4017 ft 120 kts 217°
2026-05-07 04:04 32.54013 -80.29378 4018 ft 120 kts 217°
2026-05-07 04:04 32.53312 -80.29913 4019 ft 118 kts 217°
2026-05-07 04:04 32.52624 -80.30458 4018 ft 120 kts 217°
2026-05-07 04:05 32.51939 -80.31027 4019 ft 119 kts 217°
2026-05-07 04:05 32.51256 -80.31596 4024 ft 121 kts 217°
2026-05-07 04:05 32.50569 -80.32166 4020 ft 121 kts 217°
2026-05-07 04:05 32.49879 -80.32745 4018 ft 123 kts 217°
2026-05-07 04:06 32.49185 -80.33335 4015 ft 122 kts 217°
2026-05-07 04:06 32.48493 -80.33901 4014 ft 121 kts 217°
2026-05-07 04:06 32.47779 -80.34429 4007 ft 122 kts 212°
2026-05-07 04:06 32.47040 -80.34924 4010 ft 123 kts 212°
2026-05-07 04:07 32.46291 -80.35424 4019 ft 123 kts 212°
2026-05-07 04:07 32.45554 -80.35916 4020 ft 121 kts 212°
2026-05-07 04:07 32.44816 -80.36416 4020 ft 123 kts 212°
2026-05-07 04:07 32.44068 -80.36901 4018 ft 122 kts 212°
2026-05-07 04:08 32.43323 -80.37398 4019 ft 122 kts 212°
2026-05-07 04:08 32.42585 -80.37898 4023 ft 122 kts 212°
2026-05-07 04:08 32.41854 -80.38389 4016 ft 121 kts 212°
2026-05-07 04:08 32.41116 -80.38873 4020 ft 122 kts 212°
2026-05-07 04:09 32.40372 -80.39373 4018 ft 124 kts 212°
2026-05-07 04:09 32.39633 -80.39879 4015 ft 121 kts 212°
2026-05-07 04:09 32.38895 -80.40369 4018 ft 122 kts 212°
2026-05-07 04:09 32.38158 -80.40858 4019 ft 122 kts 212°
2026-05-07 04:10 32.37425 -80.41353 4019 ft 122 kts 212°
2026-05-07 04:10 32.36680 -80.41842 4021 ft 123 kts 212°
2026-05-07 04:10 32.35935 -80.42332 4020 ft 123 kts 212°
2026-05-07 04:10 32.35192 -80.42830 4023 ft 123 kts 212°
2026-05-07 04:11 32.34449 -80.43327 4025 ft 122 kts 212°
2026-05-07 04:11 32.33716 -80.43816 4022 ft 121 kts 212°
2026-05-07 04:11 32.32974 -80.44304 4021 ft 123 kts 212°
2026-05-07 04:11 32.32227 -80.44806 4021 ft 121 kts 212°
2026-05-07 04:12 32.31498 -80.45309 4023 ft 123 kts 212°
2026-05-07 04:12 32.30759 -80.45802 4019 ft 122 kts 212°
2026-05-07 04:12 32.30016 -80.46294 4022 ft 121 kts 212°
2026-05-07 04:12 32.29281 -80.46791 4018 ft 123 kts 212°
2026-05-07 04:13 32.28544 -80.47281 4020 ft 122 kts 212°
2026-05-07 04:13 32.27799 -80.47773 4016 ft 122 kts 212°
2026-05-07 04:13 32.27056 -80.48254 4017 ft 122 kts 212°
2026-05-07 04:13 32.26313 -80.48731 4018 ft 122 kts 212°
2026-05-07 04:14 32.25565 -80.49219 4021 ft 123 kts 212°
2026-05-07 04:14 32.24818 -80.49710 4018 ft 123 kts 212°
2026-05-07 04:14 32.24072 -80.50192 4019 ft 121 kts 212°
2026-05-07 04:14 32.23326 -80.50675 4019 ft 122 kts 212°
2026-05-07 04:15 32.22586 -80.51157 4018 ft 122 kts 212°
2026-05-07 04:15 32.21841 -80.51644 4020 ft 122 kts 212°
2026-05-07 04:15 32.21104 -80.52136 4022 ft 122 kts 212°
2026-05-07 04:15 32.20356 -80.52630 4020 ft 124 kts 212°
2026-05-07 04:16 32.19604 -80.53123 4019 ft 122 kts 212°
2026-05-07 04:16 32.18868 -80.53606 4018 ft 121 kts 212°
2026-05-07 04:16 32.18128 -80.54088 4019 ft 122 kts 212°
2026-05-07 04:16 32.17385 -80.54592 4019 ft 124 kts 212°
2026-05-07 04:17 32.16644 -80.55092 4019 ft 122 kts 212°
2026-05-07 04:17 32.15901 -80.55579 4020 ft 123 kts 212°
2026-05-07 04:17 32.15152 -80.56076 4017 ft 124 kts 212°
2026-05-07 04:17 32.14408 -80.56575 4016 ft 122 kts 212°
2026-05-07 04:18 32.13665 -80.57065 4017 ft 123 kts 212°
2026-05-07 04:18 32.12923 -80.57560 4018 ft 122 kts 212°
2026-05-07 04:18 32.12183 -80.58063 4018 ft 123 kts 212°
2026-05-07 04:18 32.11437 -80.58564 4017 ft 123 kts 212°
2026-05-07 04:19 32.10702 -80.59063 4017 ft 122 kts 212°
2026-05-07 04:19 32.09974 -80.59570 4017 ft 122 kts 212°
2026-05-07 04:19 32.09236 -80.60071 4018 ft 123 kts 212°
2026-05-07 04:19 32.08497 -80.60571 4017 ft 122 kts 212°
2026-05-07 04:20 32.07760 -80.61070 4018 ft 122 kts 212°
2026-05-07 04:20 32.07020 -80.61564 4010 ft 123 kts 212°
2026-05-07 04:20 32.06277 -80.62064 4009 ft 123 kts 212°
2026-05-07 04:21 32.04780 -80.63051 4036 ft 122 kts 212°
2026-05-07 04:21 32.04042 -80.63554 4036 ft 123 kts 212°
2026-05-07 04:21 32.03300 -80.64050 4037 ft 123 kts 213°
2026-05-07 04:21 32.02552 -80.64544 4036 ft 123 kts 212°
2026-05-07 04:22 32.01807 -80.65046 4035 ft 123 kts 213°
2026-05-07 04:22 32.01065 -80.65546 4034 ft 123 kts 212°
2026-05-07 04:22 32.00322 -80.66046 4032 ft 123 kts 212°
2026-05-07 04:22 31.99571 -80.66545 4024 ft 124 kts 212°
2026-05-07 04:23 31.98818 -80.67044 4026 ft 125 kts 213°
2026-05-07 04:23 31.98072 -80.67530 4023 ft 126 kts 213°
2026-05-07 04:23 31.97311 -80.68026 4027 ft 125 kts 213°
2026-05-07 04:23 31.96556 -80.68512 4029 ft 122 kts 212°
2026-05-07 04:24 31.95808 -80.69010 4024 ft 124 kts 213°
2026-05-07 04:24 31.95050 -80.69504 4027 ft 124 kts 213°
2026-05-07 04:24 31.94289 -80.69981 4029 ft 125 kts 213°
2026-05-07 04:24 31.93531 -80.70467 4028 ft 124 kts 213°
2026-05-07 04:25 31.92778 -80.70962 4028 ft 123 kts 213°
2026-05-07 04:25 31.92023 -80.71450 4025 ft 124 kts 213°
2026-05-07 04:25 31.91271 -80.71941 4022 ft 125 kts 213°
2026-05-07 04:25 31.90518 -80.72435 4021 ft 124 kts 212°
2026-05-07 04:26 31.89779 -80.72932 4020 ft 122 kts 213°
2026-05-07 04:26 31.89042 -80.73431 4021 ft 123 kts 213°
2026-05-07 04:26 31.88289 -80.73932 4021 ft 123 kts 213°
2026-05-07 04:26 31.87539 -80.74422 4018 ft 123 kts 212°
2026-05-07 04:27 31.86793 -80.74921 4020 ft 124 kts 213°
2026-05-07 04:27 31.86055 -80.75420 4016 ft 123 kts 213°
2026-05-07 04:27 31.85309 -80.75917 4015 ft 123 kts 213°
2026-05-07 04:27 31.84560 -80.76410 4016 ft 124 kts 213°
2026-05-07 04:28 31.84070 -80.76735 4017 ft 122 kts 213°
2026-05-07 04:28 31.83320 -80.77226 4017 ft 124 kts 213°
2026-05-07 04:28 31.82566 -80.77723 4017 ft 124 kts 213°
2026-05-07 04:28 31.81828 -80.78222 4016 ft 123 kts 213°
2026-05-07 04:29 31.81090 -80.78726 4019 ft 123 kts 213°
2026-05-07 04:29 31.80337 -80.79225 4016 ft 125 kts 213°
2026-05-07 04:29 31.79585 -80.79721 4017 ft 123 kts 213°
2026-05-07 04:29 31.78846 -80.80217 4016 ft 123 kts 213°
2026-05-07 04:30 31.78100 -80.80719 4017 ft 124 kts 213°
2026-05-07 04:30 31.77347 -80.81224 4016 ft 125 kts 213°
2026-05-07 04:30 31.76590 -80.81716 4014 ft 124 kts 213°
2026-05-07 04:30 31.75834 -80.82210 4014 ft 125 kts 213°
2026-05-07 04:31 31.75084 -80.82706 4016 ft 124 kts 213°
2026-05-07 04:31 31.74335 -80.83200 4018 ft 124 kts 213°
2026-05-07 04:31 31.73555 -80.83684 4017 ft 126 kts 213°
2026-05-07 04:31 31.72775 -80.84155 4020 ft 123 kts 213°
2026-05-07 04:32 31.72013 -80.84630 4024 ft 125 kts 213°
2026-05-07 04:32 31.71247 -80.85118 4027 ft 126 kts 213°
2026-05-07 04:32 31.70478 -80.85596 4025 ft 124 kts 213°
2026-05-07 04:32 31.69715 -80.86070 4021 ft 123 kts 213°
2026-05-07 04:33 31.68946 -80.86544 4022 ft 127 kts 213°
2026-05-07 04:33 31.68171 -80.87023 4022 ft 126 kts 213°
2026-05-07 04:33 31.67410 -80.87501 4024 ft 124 kts 213°
2026-05-07 04:33 31.66647 -80.87985 4026 ft 126 kts 213°
2026-05-07 04:34 31.65871 -80.88472 4023 ft 127 kts 213°
2026-05-07 04:34 31.65093 -80.88946 4022 ft 124 kts 213°
2026-05-07 04:34 31.64324 -80.89416 4020 ft 125 kts 213°
2026-05-07 04:34 31.63558 -80.89907 4031 ft 126 kts 213°
2026-05-07 04:35 31.62788 -80.90397 4033 ft 125 kts 213°
2026-05-07 04:35 31.62023 -80.90869 4034 ft 124 kts 213°
2026-05-07 04:35 31.61260 -80.91358 4022 ft 126 kts 213°
2026-05-07 04:35 31.60489 -80.91859 4017 ft 125 kts 213°
2026-05-07 04:36 31.59725 -80.92357 4017 ft 125 kts 213°
2026-05-07 04:36 31.58964 -80.92853 4019 ft 124 kts 213°
2026-05-07 04:36 31.58205 -80.93343 4022 ft 124 kts 213°
2026-05-07 04:36 31.57456 -80.93831 4023 ft 123 kts 213°
2026-05-07 04:37 31.56701 -80.94325 4022 ft 125 kts 213°
2026-05-07 04:37 31.55935 -80.94825 4022 ft 127 kts 213°
2026-05-07 04:37 31.55174 -80.95329 4021 ft 126 kts 213°
2026-05-07 04:37 31.54408 -80.95835 4024 ft 126 kts 213°
2026-05-07 04:38 31.53647 -80.96346 4023 ft 125 kts 213°
2026-05-07 04:38 31.52882 -80.96845 4028 ft 126 kts 213°
2026-05-07 04:38 31.52115 -80.97353 4028 ft 126 kts 213°
2026-05-07 04:38 31.51353 -80.97864 4028 ft 126 kts 213°
2026-05-07 04:39 31.50598 -80.98364 4027 ft 126 kts 213°
2026-05-07 04:39 31.49835 -80.98869 4028 ft 126 kts 213°
2026-05-07 04:39 31.49073 -80.99374 4030 ft 124 kts 213°
2026-05-07 04:39 31.48317 -80.99873 4031 ft 125 kts 213°
2026-05-07 04:40 31.47547 -81.00369 4029 ft 128 kts 213°
2026-05-07 04:40 31.46768 -81.00878 4029 ft 128 kts 213°
2026-05-07 04:40 31.45996 -81.01373 4028 ft 124 kts 213°
2026-05-07 04:40 31.45231 -81.01857 4030 ft 126 kts 213°
2026-05-07 04:41 31.44454 -81.02344 4027 ft 125 kts 213°
2026-05-07 04:41 31.43687 -81.02829 4033 ft 123 kts 213°
2026-05-07 04:41 31.42926 -81.03301 4035 ft 124 kts 213°
2026-05-07 04:41 31.42161 -81.03783 4038 ft 126 kts 213°
2026-05-07 04:42 31.41392 -81.04280 4038 ft 127 kts 213°
2026-05-07 04:42 31.40635 -81.04767 4040 ft 127 kts 213°
2026-05-07 04:42 31.39860 -81.05261 4032 ft 128 kts 213°
2026-05-07 04:42 31.39101 -81.05747 4031 ft 125 kts 213°
2026-05-07 04:43 31.38329 -81.06248 4029 ft 128 kts 213°
2026-05-07 04:43 31.37560 -81.06727 4035 ft 123 kts 213°
2026-05-07 04:43 31.36793 -81.07209 4041 ft 126 kts 213°
2026-05-07 04:43 31.36031 -81.07694 4041 ft 121 kts 213°
2026-05-07 04:44 31.35277 -81.08174 4042 ft 123 kts 213°
2026-05-07 04:44 31.34519 -81.08650 4040 ft 124 kts 213°
2026-05-07 04:44 31.33761 -81.09146 4040 ft 127 kts 213°
2026-05-07 04:44 31.32989 -81.09636 4033 ft 124 kts 213°
2026-05-07 04:45 31.32230 -81.10121 4040 ft 125 kts 213°
2026-05-07 04:45 31.31465 -81.10615 4045 ft 127 kts 213°
2026-05-07 04:45 31.30684 -81.11115 4042 ft 129 kts 213°
2026-05-07 04:45 31.29916 -81.11599 4047 ft 126 kts 213°
2026-05-07 04:46 31.29147 -81.12086 4049 ft 124 kts 213°
2026-05-07 04:46 31.28375 -81.12572 4047 ft 126 kts 213°
2026-05-07 04:46 31.27606 -81.13058 4047 ft 125 kts 213°
2026-05-07 04:46 31.26826 -81.13551 4047 ft 126 kts 213°
2026-05-07 04:47 31.26068 -81.14033 4042 ft 124 kts 213°
2026-05-07 04:47 31.25291 -81.14517 4037 ft 129 kts 213°
2026-05-07 04:47 31.24521 -81.15004 4039 ft 123 kts 213°
2026-05-07 04:47 31.23753 -81.15489 4042 ft 127 kts 213°
2026-05-07 04:48 31.22980 -81.15967 4044 ft 127 kts 213°
2026-05-07 04:48 31.22205 -81.16469 4042 ft 128 kts 213°
2026-05-07 04:48 31.21450 -81.16960 4058 ft 121 kts 213°
2026-05-07 04:48 31.20690 -81.17444 4060 ft 127 kts 213°
2026-05-07 04:49 31.19925 -81.17946 4051 ft 123 kts 213°
2026-05-07 04:49 31.19173 -81.18432 4052 ft 124 kts 213°
2026-05-07 04:49 31.18420 -81.18911 4047 ft 123 kts 213°
2026-05-07 04:49 31.17658 -81.19389 4041 ft 122 kts 213°
2026-05-07 04:50 31.16899 -81.19874 4038 ft 126 kts 213°
2026-05-07 04:50 31.16147 -81.20364 4043 ft 122 kts 213°
2026-05-07 04:50 31.15381 -81.20852 4042 ft 131 kts 213°
2026-05-07 04:50 31.14619 -81.21355 4036 ft 123 kts 213°
2026-05-07 04:51 31.13859 -81.21854 4034 ft 128 kts 213°
2026-05-07 04:51 31.13097 -81.22356 4041 ft 122 kts 213°
2026-05-07 04:51 31.12340 -81.22857 4050 ft 130 kts 213°
2026-05-07 04:51 31.11562 -81.23366 4041 ft 124 kts 213°
2026-05-07 04:52 31.10796 -81.23858 4047 ft 122 kts 213°
2026-05-07 04:52 31.10051 -81.24334 4045 ft 123 kts 213°
2026-05-07 04:52 31.09293 -81.24820 4044 ft 130 kts 213°
2026-05-07 04:52 31.08520 -81.25341 4039 ft 128 kts 213°
2026-05-07 04:53 31.07758 -81.25826 4043 ft 126 kts 213°
2026-05-07 04:53 31.06990 -81.26329 4039 ft 132 kts 213°
2026-05-07 04:53 31.06212 -81.26855 4040 ft 128 kts 213°
2026-05-07 04:53 31.05437 -81.27359 4037 ft 127 kts 213°
2026-05-07 04:54 31.04677 -81.27856 4043 ft 122 kts 213°
2026-05-07 04:54 31.03906 -81.28358 4045 ft 127 kts 213°
2026-05-07 04:54 31.03152 -81.28872 4042 ft 126 kts 213°
2026-05-07 04:54 31.02394 -81.29395 4042 ft 127 kts 213°
2026-05-07 04:55 31.01632 -81.29917 4042 ft 127 kts 213°
2026-05-07 04:55 31.00876 -81.30437 4046 ft 126 kts 213°
2026-05-07 04:55 31.00123 -81.30963 4055 ft 126 kts 213°
2026-05-07 04:55 30.99362 -81.31492 4046 ft 127 kts 213°
2026-05-07 04:56 30.98601 -81.32016 4043 ft 126 kts 213°
2026-05-07 04:56 30.97839 -81.32536 4042 ft 127 kts 213°
2026-05-07 04:56 30.97075 -81.33063 4040 ft 128 kts 213°
2026-05-07 04:56 30.96319 -81.33586 4039 ft 127 kts 213°
2026-05-07 04:57 30.95556 -81.34105 4043 ft 127 kts 213°
2026-05-07 04:57 30.94794 -81.34634 4042 ft 128 kts 213°
2026-05-07 04:57 30.94031 -81.35169 4043 ft 128 kts 213°
2026-05-07 04:57 30.93268 -81.35705 4048 ft 128 kts 213°
2026-05-07 04:58 30.92507 -81.36253 4044 ft 129 kts 213°
2026-05-07 04:58 30.91739 -81.36793 4043 ft 129 kts 213°
2026-05-07 04:58 30.90982 -81.37328 4043 ft 127 kts 213°
2026-05-07 04:58 30.90233 -81.37857 4044 ft 128 kts 213°
2026-05-07 04:59 30.89471 -81.38393 4046 ft 128 kts 213°
2026-05-07 04:59 30.88699 -81.38943 4048 ft 128 kts 213°
2026-05-07 04:59 30.87954 -81.39470 4047 ft 127 kts 213°
2026-05-07 04:59 30.87198 -81.40011 4047 ft 128 kts 213°
2026-05-07 05:00 30.86446 -81.40549 4051 ft 126 kts 213°
2026-05-07 05:00 30.85692 -81.41083 4051 ft 127 kts 213°
2026-05-07 05:00 30.84944 -81.41620 4050 ft 126 kts 213°
2026-05-07 05:00 30.84193 -81.42152 4049 ft 127 kts 213°
2026-05-07 05:01 30.83441 -81.42688 4047 ft 127 kts 213°
2026-05-07 05:01 30.82677 -81.43209 4040 ft 129 kts 210°
2026-05-07 05:01 30.81882 -81.43588 4063 ft 113 kts 205°
2026-05-07 05:01 30.81081 -81.43940 4042 ft 128 kts 204°
2026-05-07 05:02 30.80255 -81.44309 4047 ft 128 kts 204°
2026-05-07 05:02 30.79429 -81.44684 4057 ft 128 kts 204°
2026-05-07 05:02 30.78600 -81.45058 4060 ft 128 kts 204°
2026-05-07 05:02 30.77770 -81.45436 4061 ft 128 kts 204°
2026-05-07 05:03 30.76937 -81.45805 4063 ft 128 kts 204°
2026-05-07 05:03 30.76107 -81.46180 4064 ft 129 kts 204°
2026-05-07 05:03 30.75271 -81.46554 4061 ft 128 kts 204°
2026-05-07 05:03 30.74439 -81.46927 4062 ft 128 kts 204°
2026-05-07 05:04 30.73607 -81.47300 4061 ft 129 kts 204°
2026-05-07 05:04 30.72771 -81.47671 4066 ft 129 kts 204°
2026-05-07 05:04 30.71937 -81.48049 4067 ft 129 kts 204°
2026-05-07 05:04 30.71109 -81.48418 4067 ft 127 kts 204°
2026-05-07 05:05 30.70281 -81.48793 4066 ft 129 kts 204°
2026-05-07 05:05 30.69449 -81.49168 4066 ft 127 kts 204°
2026-05-07 05:05 30.68624 -81.49536 4068 ft 127 kts 204°
2026-05-07 05:05 30.67796 -81.49907 4069 ft 128 kts 204°
2026-05-07 05:06 30.66969 -81.50289 4070 ft 128 kts 204°
2026-05-07 05:06 30.66140 -81.50668 4066 ft 128 kts 204°
2026-05-07 05:06 30.65312 -81.51052 4067 ft 128 kts 204°
2026-05-07 05:06 30.64492 -81.51430 4066 ft 129 kts 204°
2026-05-07 05:07 30.63658 -81.51808 4070 ft 128 kts 204°
2026-05-07 05:07 30.62825 -81.52188 4068 ft 128 kts 204°
2026-05-07 05:07 30.61995 -81.52567 4069 ft 128 kts 204°
2026-05-07 05:07 30.61163 -81.52949 4064 ft 128 kts 204°
2026-05-07 05:08 30.60337 -81.53323 4067 ft 127 kts 204°
2026-05-07 05:08 30.59508 -81.53703 4065 ft 129 kts 204°
2026-05-07 05:08 30.58681 -81.54087 4069 ft 127 kts 204°
2026-05-07 05:08 30.57858 -81.54468 4068 ft 128 kts 204°
2026-05-07 05:09 30.57034 -81.54851 4067 ft 128 kts 204°
2026-05-07 05:09 30.56208 -81.55238 4067 ft 128 kts 204°
2026-05-07 05:09 30.55380 -81.55618 4066 ft 128 kts 204°
2026-05-07 05:09 30.54555 -81.56011 4097 ft 128 kts 205°
2026-05-07 05:10 30.53743 -81.56398 3873 ft 127 kts 203°
2026-05-07 05:10 30.52920 -81.56743 3780 ft 124 kts 202°
2026-05-07 05:10 30.52112 -81.57105 3690 ft 126 kts 204°
2026-05-07 05:10 30.51292 -81.57468 3591 ft 126 kts 202°
2026-05-07 05:11 30.50462 -81.57797 3464 ft 126 kts 202°
2026-05-07 05:11 30.49631 -81.58109 3365 ft 125 kts 201°
2026-05-07 05:11 30.48807 -81.58407 3297 ft 124 kts 199°
2026-05-07 05:11 30.47957 -81.58646 3169 ft 129 kts 197°
2026-05-07 05:12 30.47066 -81.58931 2992 ft 136 kts 198°
2026-05-07 05:12 30.46151 -81.59221 2850 ft 137 kts 199°
2026-05-07 05:12 30.45238 -81.59511 2675 ft 136 kts 198°
2026-05-07 05:12 30.44327 -81.59793 2537 ft 134 kts 197°
2026-05-07 05:13 30.43421 -81.60048 2422 ft 134 kts 198°
2026-05-07 05:13 30.42498 -81.60283 2252 ft 139 kts 193°
2026-05-07 05:13 30.41545 -81.60510 2081 ft 139 kts 193°
2026-05-07 05:13 30.40602 -81.60676 2066 ft 135 kts 191°
2026-05-07 05:14 30.39990 -81.60757 2080 ft 133 kts 189°
2026-05-07 05:14 30.39081 -81.60884 2106 ft 131 kts 191°
2026-05-07 05:14 30.38192 -81.61022 1897 ft 126 kts 193°
2026-05-07 05:14 30.37398 -81.61174 1746 ft 105 kts 192°
2026-05-07 05:15 30.36746 -81.61285 1749 ft 88 kts 192°
2026-05-07 05:15 30.36163 -81.61390 1706 ft 82 kts 196°
2026-05-07 05:15 30.35597 -81.61558 1532 ft 87 kts 200°
2026-05-07 05:15 30.34992 -81.61775 1187 ft 97 kts 200°
2026-05-07 05:16 30.34333 -81.62047 915 ft 96 kts 202°
2026-05-07 05:16 30.33758 -81.62312 953 ft 84 kts 204°
2026-05-07 05:16 30.33249 -81.62579 1007 ft 79 kts 206°
2026-05-07 05:16 30.32743 -81.62888 871 ft 86 kts 210°
2026-05-07 05:17 30.32208 -81.63326 799 ft 104 kts 217°
2026-05-07 05:17 30.31605 -81.63857 873 ft 112 kts 216°
2026-05-07 05:17 30.30969 -81.64372 985 ft 112 kts 210°
2026-05-07 05:17 30.30274 -81.64807 1061 ft 115 kts 208°
2026-05-07 05:18 30.29568 -81.65238 974 ft 108 kts 208°
2026-05-07 05:18 30.28971 -81.65594 1053 ft 92 kts 200°
2026-05-07 05:18 30.28351 -81.65747 1110 ft 90 kts 192°
2026-05-07 05:18 30.27743 -81.65863 1088 ft 91 kts 192°
2026-05-07 05:19 30.27103 -81.65967 960 ft 92 kts 190°
2026-05-07 05:19 30.26478 -81.66053 897 ft 91 kts 188°
2026-05-07 05:19 30.25851 -81.66120 851 ft 92 kts 191°
2026-05-07 05:19 30.25206 -81.66175 780 ft 93 kts 190°
2026-05-07 05:20 30.24590 -81.66269 734 ft 83 kts 196°
2026-05-07 05:20 30.24148 -81.66408 727 ft 52 kts 194°
2026-05-07 05:20 30.23866 -81.66520 616 ft 39 kts 191°
2026-05-07 05:20 30.23600 -81.66597 428 ft 40 kts 188°
2026-05-07 05:21 30.23346 -81.66645 261 ft 34 kts 186°
2026-05-07 05:21 30.22974 -81.66697 95 ft 25 kts 185°
2026-05-07 05:21 30.22786 -81.66708 82 ft 24 kts 184°
2026-05-07 05:22 30.22721 -81.66711 32 ft 3 kts 184°
2026-05-07 05:22 30.22678 -81.66713 37 ft 2 kts 105°
2026-05-07 05:22 30.22658 -81.66710 29 ft 2 kts 100°
2026-05-07 05:22 30.22656 -81.66709 29 ft 3 kts 94°
2026-05-07 05:23 30.22652 -81.66714 41 ft 1 kts 94°
2026-05-07 05:23 30.22652 -81.66699 20 ft 1 kts 94°
2026-05-07 05:23 30.22652 -81.66697 15 ft 0 kts 93°